Weather History for MRPV - January, 2014

Change the Weather History Date:

Monday, January 6, 2014

  Actual Average (WUND) Record (WUND)
Temperature  
Mean Temperature 73 °F -  
Max Temperature 79 °F - - (-1)
Min Temperature 67 °F - - (-1)
Cooling Degree Days 8    
Growing Degree Days 23 (Base 50)    
Moisture  
Dew Point 59 °F    
Average Humidity 58    
Maximum Humidity 73    
Minimum Humidity 42    
Precipitation  
Precipitation 0.00 in - - ()
Sea Level Pressure  
Sea Level Pressure 29.97 in    
Wind  
Wind Speed 15 mph ()    
Max Wind Speed 23 mph    
Max Gust Speed 34 mph    
Visibility 6.1 miles    
Events      
Averages and records for this station are not official NWS values.
T = Trace of Precipitation, MM = Missing Value Source: Averaged Metar Reports

Daily Weather History Graph

Daily Weather History Graph

Search for Another Location

Airport or City:

Trip Planner

Search our weather history database for the weather conditions in past years. The results will help you decide how hot, cold, wet, or windy it might be!

Date:

Astronomy

Jan. 06, 2014 Rise Set
Actual Time 5:55 AM CST 5:29 PM CST
Civil Twilight 5:32 AM CST 5:52 PM CST
Nautical Twilight 5:06 AM CST 6:18 PM CST
Astronomical Twilight 4:40 AM CST 6:44 PM CST
Moon 10:18 AM CST (1/6) 10:46 PM CST (1/6)
Length of Visible Light 12h 19m
Length of Day
11h 34m
Waxing Crescent, 35% of the Moon is Illuminated
Jan 6
Waxing Crescent
Jan 7
First Quarter
Jan 15
Full
Jan 23
Last Quarter
Jan 30
New

Hourly Weather History & Observations

Time (CST) Temp. Dew Point Humidity Pressure Visibility Wind Dir Wind Speed Gust Speed Precip Events Conditions
6:00 AM 68 °F 60 °F 68% 29.85 in 6 mi East 17.3 mph - -   Scattered Clouds
6:00 AM 68.0 °F 59.0 °F 73% 29.99 in 6.2 mi East 17.3 mph - N/A   Scattered Clouds
7:00 AM 68.0 °F 59.0 °F 73% 30.03 in 6.2 mi East 13.8 mph - N/A   Partly Cloudy
7:32 AM 69.8 °F 59.0 °F 68% 30.04 in 6.2 mi East 17.3 mph 31.1 mph N/A   Partly Cloudy
8:00 AM 71.6 °F 59.0 °F 64% 30.05 in 6.2 mi East 15.0 mph 26.5 mph N/A   Partly Cloudy
9:00 AM 72 °F 60 °F 56% 29.88 in 6 mi East 19.6 mph - -   Scattered Clouds
9:00 AM 73.4 °F 59.0 °F 61% 30.05 in 6.2 mi East 19.6 mph - N/A   Partly Cloudy
10:00 AM 75.2 °F 59.0 °F 57% 30.04 in 6.2 mi ENE 23.0 mph 34.5 mph N/A   Partly Cloudy
11:00 AM 77.0 °F 59.0 °F 54% 30.03 in 6.2 mi ENE 18.4 mph 31.1 mph N/A   Partly Cloudy
12:00 PM 77 °F 58 °F 42% 29.86 in 6 mi ENE 19.6 mph - -   Scattered Clouds
12:00 PM 77.0 °F 59.0 °F 54% 30.01 in 6.2 mi NE 19.6 mph - N/A   Partly Cloudy
1:00 PM 77.0 °F 59.0 °F 54% 29.98 in 6.2 mi ENE 18.4 mph - N/A   Scattered Clouds
2:00 PM 78.8 °F 59.0 °F 51% 29.97 in 6.2 mi ENE 17.3 mph - N/A   Scattered Clouds
3:00 PM 76 °F 58 °F 43% 29.81 in 6 mi ENE 16.1 mph - -   Scattered Clouds
3:00 PM 77.0 °F 57.2 °F 50% 29.96 in 6.2 mi ENE 16.1 mph - N/A   Mostly Cloudy
4:00 PM 75.2 °F 57.2 °F 53% 29.97 in 6.2 mi East 15.0 mph - N/A   Mostly Cloudy
5:00 PM 73.4 °F 60.8 °F 65% 29.99 in 6.2 mi East 11.5 mph - N/A   Mostly Cloudy
6:00 PM 71 °F 59 °F 58% 29.83 in 6 mi East 12.7 mph - -   Scattered Clouds
6:00 PM 71.6 °F 59.0 °F 64% 30.01 in 6.2 mi East 12.7 mph - N/A   Mostly Cloudy